| time (UTC) | temp F | wind direction | speed MPH | gust MPH | rain 1hr in | rain 24hr in | rain mn in | humidity % | barometer mb |
| 20260901085442 | 71 | 272 | 5.0 | 10.0 | 0.00 | 0.03 | 0.00 | 72 | 1019.8 |
| 20260901084930 | 71 | 275 | 6.0 | 10.0 | 0.00 | 0.04 | 0.00 | 71 | 1019.8 |
| 20260901084435 | 71 | 275 | 6.0 | 11.0 | 0.00 | 0.04 | 0.00 | 71 | 1019.8 |
| 20260901084127 | 71 | 287 | 6.0 | 12.0 | 0.00 | 0.05 | 0.00 | 71 | 1019.7 |
| 20260901084008 | 71 | 287 | 6.0 | 12.0 | 0.00 | 0.05 | 0.00 | 71 | 1019.7 |
| 20260901083627 | 71 | 267 | 7.0 | 14.0 | 0.00 | 0.05 | 0.00 | 70 | 1019.7 |
| 20260901083508 | 71 | 267 | 7.0 | 14.0 | 0.00 | 0.05 | 0.00 | 70 | 1019.7 |
| 20260901082901 | 72 | 269 | 8.0 | 14.0 | 0.00 | 0.05 | 0.00 | 70 | 1019.7 |
| 20260901082339 | 72 | 263 | 8.0 | 13.0 | 0.00 | 0.05 | 0.00 | 69 | 1019.8 |
| 20260901081835 | 72 | 276 | 9.0 | 17.0 | 0.00 | 0.05 | 0.00 | 69 | 1019.9 |
| 20260901081831 | 72 | 294 | 9.0 | 17.0 | 0.00 | 0.05 | 0.00 | 69 | 1019.9 |
| 20260901081329 | 72 | 282 | 9.0 | 17.0 | 0.00 | 0.06 | 0.00 | 69 | 1020.1 |
| 20260901080830 | 72 | 271 | 8.0 | 14.0 | 0.00 | 0.06 | 0.00 | 69 | 1020.2 |
| 20260901080324 | 72 | 251 | 8.0 | 14.0 | 0.00 | 0.06 | 0.00 | 69 | 1020.4 |
| 20260901075759 | 72 | 257 | 8.0 | 17.0 | 0.00 | 0.06 | 0.00 | 70 | 1020.5 |
| 20260901075257 | 72 | 268 | 8.0 | 17.0 | 0.00 | 0.06 | 0.00 | 72 | 1020.4 |
| 20260901074739 | 72 | 245 | 8.0 | 16.0 | 0.00 | 0.07 | 0.00 | 74 | 1020.4 |
| 20260901074446 | 71 | 242 | 7.0 | 16.0 | 0.00 | 0.07 | 0.00 | 79 | 1020.3 |
| 20260901074321 | 71 | 242 | 7.0 | 16.0 | 0.00 | 0.07 | 0.00 | 79 | 1020.3 |
| 20260901073652 | 71 | 248 | 7.0 | 11.0 | 0.00 | 0.07 | 0.00 | 80 | 1020.3 |
| 20260901073621 | 71 | 245 | 5.0 | 12.0 | 0.00 | 0.07 | 0.00 | 81 | 1020.2 |
| 20260901073243 | 71 | 245 | 5.0 | 12.0 | 0.00 | 0.07 | 0.00 | 81 | 1020.2 |
| 20260901072623 | 71 | 252 | 3.0 | 10.0 | 0.00 | 0.07 | 0.00 | 81 | 1020.1 |
| 20260901072120 | 71 | 250 | 2.0 | 7.0 | 0.00 | 0.07 | 0.00 | 81 | 1019.9 |
| 20260901071609 | 71 | 247 | 1.0 | 2.0 | 0.00 | 0.07 | 0.00 | 81 | 1019.8 |
| 20260901071116 | 71 | 247 | 1.0 | 2.0 | 0.00 | 0.07 | 0.00 | 81 | 1019.7 |
| 20260901070804 | 71 | 247 | 1.0 | 2.0 | 0.00 | 0.07 | 0.00 | 80 | 1019.5 |
| 20260901070556 | 71 | 247 | 1.0 | 2.0 | 0.00 | 0.07 | 0.00 | 80 | 1019.5 |
| 20260901070235 | 71 | 247 | 2.0 | 4.0 | 0.00 | 0.07 | 0.00 | 79 | 1019.9 |
| 20260901070115 | 71 | 247 | 2.0 | 4.0 | 0.00 | 0.07 | 0.00 | 79 | 1019.9 |
| 20260901065443 | 72 | 247 | 1.0 | 4.0 | 0.00 | 0.07 | 0.00 | 78 | 1020.0 |
| 20260901064920 | 72 | 247 | 2.0 | 10.0 | 0.00 | 0.07 | 0.00 | 78 | 1020.1 |
| 20260901064419 | 72 | 247 | 3.0 | 10.0 | 0.00 | 0.08 | 0.00 | 76 | 1020.0 |
| 20260901063922 | 72 | 246 | 5.0 | 11.0 | 0.00 | 0.09 | 0.00 | 75 | 1020.0 |
| 20260901063416 | 72 | 242 | 7.0 | 11.0 | 0.00 | 0.09 | 0.00 | 75 | 1019.9 |
| 20260901062850 | 72 | 247 | 5.0 | 10.0 | 0.00 | 0.09 | 0.00 | 76 | 1019.9 |
| 20260901062358 | 73 | 257 | 3.0 | 8.0 | 0.00 | 0.09 | 0.00 | 77 | 1019.3 |
| 20260901061824 | 73 | 281 | 2.0 | 6.0 | 0.00 | 0.09 | 0.00 | 76 | 1019.1 |
| 20260901061258 | 73 | 280 | 2.0 | 4.0 | 0.00 | 0.09 | 0.00 | 75 | 1018.7 |
| 20260901060732 | 74 | 279 | 2.0 | 8.0 | 0.00 | 0.10 | 0.00 | 75 | 1018.7 |
| 20260901060239 | 74 | 279 | 2.0 | 8.0 | 0.00 | 0.10 | 0.00 | 75 | 1018.7 |
| 20260901060213 | 74 | 110 | 0.0 | 3.0 | 0.00 | 0.12 | 0.00 | 73 | 1018.6 |
| 20260901055834 | 74 | 110 | 0.0 | 3.0 | 0.00 | 0.12 | 0.00 | 73 | 1018.6 |
| 20260901055202 | 75 | 110 | 0.0 | 3.0 | 0.00 | 0.18 | 0.00 | 71 | 1018.4 |
| 20260901054920 | 75 | 110 | 0.0 | 0.0 | 0.00 | 0.22 | 0.00 | 70 | 1018.3 |
| 20260901054804 | 75 | 110 | 0.0 | 0.0 | 0.00 | 0.22 | 0.00 | 70 | 1018.3 |
| 20260901054134 | 75 | 110 | 1.0 | 6.0 | 0.00 | 0.22 | 0.00 | 68 | 1018.3 |
| 20260901053628 | 75 | 110 | 2.0 | 6.0 | 0.00 | 0.22 | 0.00 | 66 | 1018.1 |
| 20260901053102 | 75 | 110 | 1.0 | 3.0 | 0.00 | 0.22 | 0.00 | 67 | 1018.0 |
| 20260901052532 | 75 | 110 | 1.0 | 3.0 | 0.00 | 0.22 | 0.00 | 68 | 1018.2 |
| 20260901052008 | 75 | 110 | 1.0 | 7.0 | 0.00 | 0.22 | 0.00 | 69 | 1018.0 |
| 20260901051504 | 75 | 110 | 1.0 | 7.0 | 0.00 | 0.22 | 0.00 | 69 | 1017.9 |
| 20260901051010 | 75 | 110 | 4.0 | 9.0 | 0.00 | 0.22 | 0.00 | 67 | 1018.2 |
| 20260901050831 | 75 | 110 | 4.0 | 9.0 | 0.00 | 0.22 | 0.00 | 68 | 1018.0 |
| 20260901050741 | 75 | 110 | 4.0 | 9.0 | 0.00 | 0.22 | 0.00 | 68 | 1018.0 |
| 20260901045939 | 76 | 117 | 1.0 | 7.0 | 0.00 | 0.22 | 0.22 | 68 | 1018.2 |
| 20260901045442 | 76 | 258 | 0.0 | 0.0 | 0.00 | 0.22 | 0.22 | 68 | 1018.8 |
| 20260901044922 | 76 | 258 | 0.0 | 6.0 | 0.00 | 0.22 | 0.22 | 67 | 1018.7 |
| 20260901044643 | 76 | 259 | 2.0 | 6.0 | 0.00 | 0.22 | 0.22 | 65 | 1018.9 |
| 20260901044524 | 76 | 259 | 2.0 | 6.0 | 0.00 | 0.22 | 0.22 | 65 | 1018.9 |
| 20260901043920 | 76 | 258 | 4.0 | 8.0 | 0.00 | 0.22 | 0.22 | 64 | 1019.7 |
| 20260901043358 | 77 | 258 | 4.0 | 11.0 | 0.00 | 0.22 | 0.22 | 64 | 1020.0 |
| 20260901042825 | 77 | 257 | 5.0 | 11.0 | 0.00 | 0.22 | 0.22 | 64 | 1020.0 |
| 20260901042529 | 77 | 259 | 7.0 | 18.0 | 0.00 | 0.22 | 0.22 | 64 | 1020.2 |
| 20260901042410 | 77 | 259 | 7.0 | 18.0 | 0.00 | 0.22 | 0.22 | 64 | 1020.2 |
| 20260901042037 | 78 | 269 | 8.0 | 18.0 | 0.00 | 0.22 | 0.22 | 63 | 1020.4 |
| 20260901041914 | 78 | 269 | 8.0 | 18.0 | 0.00 | 0.22 | 0.22 | 63 | 1020.4 |
| 20260901041534 | 78 | 265 | 9.0 | 20.0 | 0.00 | 0.22 | 0.22 | 64 | 1020.5 |
| 20260901041409 | 78 | 265 | 9.0 | 20.0 | 0.00 | 0.22 | 0.22 | 64 | 1020.5 |
| 20260901041001 | 77 | 242 | 8.0 | 20.0 | 0.00 | 0.22 | 0.22 | 66 | 1020.8 |
| 20260901040842 | 77 | 242 | 8.0 | 20.0 | 0.00 | 0.22 | 0.22 | 66 | 1020.8 |
| 20260901040434 | 77 | 243 | 2.0 | 19.0 | 0.00 | 0.22 | 0.22 | 67 | 1020.5 |
| 20260901040315 | 77 | 243 | 2.0 | 19.0 | 0.00 | 0.22 | 0.22 | 67 | 1020.5 |
| 20260901035643 | 78 | 309 | 0.0 | 0.0 | 0.00 | 0.22 | 0.22 | 67 | 1020.1 |
| 20260901035143 | 78 | 309 | 0.0 | 0.0 | 0.00 | 0.22 | 0.22 | 67 | 1020.0 |
| 20260901034619 | 78 | 309 | 0.0 | 0.0 | 0.00 | 0.22 | 0.22 | 66 | 1019.8 |
| 20260901034046 | 78 | 309 | 0.0 | 0.0 | 0.00 | 0.22 | 0.22 | 65 | 1019.8 |
| 20260901033543 | 79 | 309 | 0.0 | 0.0 | 0.00 | 0.22 | 0.22 | 65 | 1019.9 |
| 20260901033016 | 79 | 309 | 0.0 | 4.0 | 0.00 | 0.22 | 0.22 | 65 | 1019.8 |
| 20260901032707 | 79 | 309 | 1.0 | 4.0 | 0.00 | 0.22 | 0.22 | 64 | 1019.9 |
| 20260901032551 | 79 | 309 | 1.0 | 4.0 | 0.00 | 0.22 | 0.22 | 64 | 1019.9 |
| 20260901031943 | 79 | 309 | 2.0 | 5.0 | 0.00 | 0.22 | 0.22 | 64 | 1020.0 |
| 20260901031708 | 80 | 309 | 1.0 | 5.0 | 0.00 | 0.22 | 0.22 | 63 | 1020.0 |
| 20260901031544 | 80 | 309 | 1.0 | 5.0 | 0.00 | 0.22 | 0.22 | 63 | 1020.0 |
| 20260901030914 | 80 | 317 | 2.0 | 6.0 | 0.00 | 0.22 | 0.22 | 62 | 1019.9 |
| 20260901030611 | 80 | 317 | 2.0 | 7.0 | 0.00 | 0.22 | 0.22 | 61 | 1019.9 |
| 20260901030450 | 80 | 317 | 2.0 | 7.0 | 0.00 | 0.22 | 0.22 | 61 | 1019.9 |
| 20260901025818 | 81 | 82 | 1.0 | 7.0 | 0.00 | 0.22 | 0.22 | 64 | 1019.8 |
| 20260901025253 | 81 | 105 | 1.0 | 6.0 | 0.00 | 0.22 | 0.22 | 60 | 1019.5 |
| 20260901024732 | 81 | 105 | 2.0 | 6.0 | 0.00 | 0.22 | 0.22 | 60 | 1019.3 |
| 20260901024213 | 81 | 104 | 2.0 | 6.0 | 0.00 | 0.22 | 0.22 | 60 | 1019.3 |
| 20260901023712 | 81 | 104 | 1.0 | 6.0 | 0.00 | 0.22 | 0.22 | 59 | 1019.2 |
| 20260901023141 | 82 | 103 | 0.0 | 0.0 | 0.00 | 0.22 | 0.22 | 61 | 1019.1 |
| 20260901022643 | 82 | 103 | 0.0 | 1.0 | 0.00 | 0.22 | 0.22 | 61 | 1019.2 |
| 20260901022333 | 82 | 103 | 0.0 | 1.0 | 0.00 | 0.22 | 0.22 | 61 | 1019.3 |
| 20260901022217 | 82 | 103 | 0.0 | 1.0 | 0.00 | 0.22 | 0.22 | 61 | 1019.3 |
| 20260901021608 | 83 | 103 | 0.0 | 1.0 | 0.00 | 0.22 | 0.22 | 60 | 1019.2 |
| 20260901021059 | 83 | 103 | 1.0 | 2.0 | 0.00 | 0.22 | 0.22 | 58 | 1018.9 |
| 20260901020559 | 83 | 103 | 1.0 | 6.0 | 0.00 | 0.22 | 0.22 | 58 | 1018.8 |
| 20260901020030 | 83 | 103 | 2.0 | 6.0 | 0.00 | 0.22 | 0.22 | 57 | 1018.7 |
| 20260901015757 | 83 | 103 | 3.0 | 7.0 | 0.00 | 0.22 | 0.22 | 56 | 1018.4 |
| 20260901015628 | 83 | 103 | 3.0 | 7.0 | 0.00 | 0.22 | 0.22 | 56 | 1018.4 |
| 20260901014959 | 84 | 104 | 2.0 | 6.0 | 0.00 | 0.22 | 0.22 | 56 | 1018.4 |
| 20260901014436 | 84 | 104 | 2.0 | 6.0 | 0.00 | 0.22 | 0.22 | 56 | 1018.2 |
| 20260901013931 | 84 | 104 | 2.0 | 6.0 | 0.00 | 0.22 | 0.22 | 55 | 1018.1 |
| 20260901013410 | 84 | 103 | 2.0 | 7.0 | 0.00 | 0.22 | 0.22 | 55 | 1018.1 |
| 20260901012842 | 85 | 103 | 3.0 | 8.0 | 0.00 | 0.22 | 0.22 | 54 | 1018.0 |
| 20260901012330 | 85 | 102 | 2.0 | 8.0 | 0.00 | 0.22 | 0.22 | 53 | 1017.9 |
| 20260901012028 | 85 | 112 | 1.0 | 7.0 | 0.00 | 0.22 | 0.22 | 53 | 1017.8 |
| 20260901011907 | 85 | 112 | 1.0 | 7.0 | 0.00 | 0.22 | 0.22 | 53 | 1017.8 |
| 20260901011258 | 85 | 111 | 2.0 | 6.0 | 0.00 | 0.22 | 0.22 | 52 | 1017.7 |
| 20260901011223 | 85 | 111 | 3.0 | 6.0 | 0.00 | 0.22 | 0.22 | 51 | 1017.7 |
| 20260901010839 | 85 | 111 | 3.0 | 6.0 | 0.00 | 0.22 | 0.22 | 51 | 1017.7 |
| 20260901010208 | 86 | 111 | 2.0 | 6.0 | 0.00 | 0.22 | 0.22 | 50 | 1017.6 |
| 20260901005701 | 86 | 111 | 3.0 | 8.0 | 0.00 | 0.22 | 0.22 | 49 | 1017.5 |
| 20260901005145 | 86 | 111 | 3.0 | 8.0 | 0.00 | 0.22 | 0.22 | 49 | 1017.5 |
| 20260901004621 | 86 | 111 | 3.0 | 7.0 | 0.00 | 0.22 | 0.22 | 48 | 1017.5 |
| 20260901004110 | 87 | 107 | 3.0 | 7.0 | 0.00 | 0.22 | 0.22 | 48 | 1017.5 |
| 20260901003624 | 87 | 107 | 4.0 | 8.0 | 0.00 | 0.22 | 0.22 | 47 | 1017.4 |
| 20260901003105 | 87 | 109 | 3.0 | 8.0 | 0.00 | 0.22 | 0.22 | 46 | 1017.4 |
| 20260901002546 | 87 | 102 | 3.0 | 7.0 | 0.00 | 0.22 | 0.22 | 45 | 1017.5 |
| 20260901002045 | 88 | 106 | 3.0 | 7.0 | 0.00 | 0.22 | 0.22 | 44 | 1017.4 |
| 20260901001504 | 88 | 107 | 3.0 | 7.0 | 0.00 | 0.22 | 0.22 | 44 | 1017.5 |
| 20260901000938 | 88 | 106 | 4.0 | 11.0 | 0.00 | 0.22 | 0.22 | 43 | 1017.7 |
| 20260901000424 | 89 | 111 | 5.0 | 10.0 | 0.00 | 0.22 | 0.22 | 42 | 1017.7 |
| 20260831235904 | 89 | 105 | 5.0 | 11.0 | 0.00 | 0.22 | 0.22 | 42 | 1017.8 |
| 20260831235342 | 89 | 110 | 4.0 | 11.0 | 0.00 | 0.22 | 0.22 | 42 | 1017.8 |
| 20260831234829 | 89 | 92 | 5.0 | 11.0 | 0.00 | 0.22 | 0.22 | 43 | 1017.6 |
| 20260831234540 | 90 | 98 | 5.0 | 10.0 | 0.00 | 0.22 | 0.22 | 42 | 1017.5 |
| 20260831234411 | 90 | 98 | 5.0 | 10.0 | 0.00 | 0.22 | 0.22 | 42 | 1017.5 |
| 20260831233757 | 90 | 117 | 6.0 | 11.0 | 0.00 | 0.22 | 0.22 | 42 | 1017.6 |
| 20260831233241 | 90 | 111 | 5.0 | 11.0 | 0.00 | 0.22 | 0.22 | 43 | 1017.7 |
| 20260831232741 | 90 | 97 | 6.0 | 12.0 | 0.00 | 0.22 | 0.22 | 43 | 1017.7 |
| 20260831232227 | 90 | 99 | 4.0 | 12.0 | 0.00 | 0.22 | 0.22 | 42 | 1017.7 |
| 20260831231706 | 91 | 107 | 4.0 | 10.0 | 0.00 | 0.22 | 0.22 | 43 | 1017.7 |
| 20260831231201 | 91 | 107 | 5.0 | 10.0 | 0.00 | 0.22 | 0.22 | 44 | 1017.7 |
| 20260831230635 | 91 | 110 | 5.0 | 11.0 | 0.00 | 0.22 | 0.22 | 43 | 1017.7 |
| 20260831230113 | 90 | 87 | 6.0 | 11.0 | 0.00 | 0.22 | 0.22 | 43 | 1017.8 |
| 20260831225611 | 91 | 90 | 5.0 | 9.0 | 0.00 | 0.22 | 0.22 | 41 | 1017.9 |
| 20260831225043 | 91 | 110 | 4.0 | 9.0 | 0.00 | 0.22 | 0.22 | 42 | 1018.0 |
| 20260831225033 | 91 | 108 | 4.0 | 7.0 | 0.00 | 0.22 | 0.22 | 41 | 1018.0 |
| 20260831224934 | 91 | 108 | 4.0 | 7.0 | 0.00 | 0.22 | 0.22 | 41 | 1018.0 |
| 20260831223948 | 91 | 108 | 5.0 | 12.0 | 0.00 | 0.22 | 0.22 | 42 | 1018.1 |
| 20260831223701 | 91 | 101 | 5.0 | 12.0 | 0.00 | 0.22 | 0.22 | 42 | 1018.2 |
| 20260831223539 | 91 | 101 | 5.0 | 12.0 | 0.00 | 0.22 | 0.22 | 42 | 1018.2 |
| 20260831222855 | 92 | 113 | 5.0 | 12.0 | 0.00 | 0.22 | 0.22 | 42 | 1018.2 |
| 20260831222352 | 92 | 103 | 5.0 | 11.0 | 0.00 | 0.22 | 0.22 | 41 | 1018.2 |
| 20260831221834 | 92 | 103 | 3.0 | 11.0 | 0.00 | 0.22 | 0.22 | 41 | 1018.2 |
| 20260831221323 | 92 | 119 | 4.0 | 13.0 | 0.00 | 0.22 | 0.22 | 42 | 1018.2 |
| 20260831220801 | 91 | 74 | 5.0 | 13.0 | 0.00 | 0.22 | 0.22 | 43 | 1018.2 |
| 20260831220311 | 92 | 111 | 5.0 | 11.0 | 0.00 | 0.22 | 0.22 | 42 | 1018.1 |
| 20260831215801 | 92 | 116 | 5.0 | 9.0 | 0.00 | 0.22 | 0.22 | 42 | 1018.2 |
| 20260831215240 | 92 | 96 | 4.0 | 11.0 | 0.00 | 0.22 | 0.22 | 42 | 1018.1 |
| 20260831214729 | 92 | 94 | 5.0 | 11.0 | 0.00 | 0.22 | 0.22 | 42 | 1018.3 |
| 20260831214506 | 92 | 69 | 5.0 | 11.0 | 0.00 | 0.22 | 0.22 | 42 | 1018.3 |
| 20260831214330 | 92 | 69 | 5.0 | 11.0 | 0.00 | 0.22 | 0.22 | 42 | 1018.3 |
| 20260831213659 | 92 | 155 | 5.0 | 13.0 | 0.00 | 0.22 | 0.22 | 44 | 1018.2 |
| 20260831213155 | 92 | 100 | 5.0 | 13.0 | 0.00 | 0.22 | 0.22 | 42 | 1018.3 |
| 20260831212632 | 92 | 108 | 8.0 | 12.0 | 0.00 | 0.22 | 0.22 | 45 | 1018.4 |
| 20260831212118 | 92 | 101 | 7.0 | 14.0 | 0.00 | 0.22 | 0.22 | 42 | 1018.4 |
| 20260831211611 | 93 | 92 | 6.0 | 14.0 | 0.00 | 0.22 | 0.22 | 41 | 1018.6 |
| 20260831211112 | 94 | 94 | 5.0 | 12.0 | 0.00 | 0.22 | 0.22 | 40 | 1018.6 |
| 20260831210607 | 95 | 144 | 5.0 | 12.0 | 0.00 | 0.22 | 0.22 | 39 | 1018.6 |
| 20260831210349 | 96 | 85 | 4.0 | 12.0 | 0.00 | 0.22 | 0.22 | 37 | 1018.7 |
| 20260831210213 | 96 | 85 | 4.0 | 12.0 | 0.00 | 0.22 | 0.22 | 37 | 1018.7 |
| 20260831205040 | 98 | 130 | 3.0 | 9.0 | 0.00 | 0.22 | 0.22 | 35 | 1018.8 |
| 20260831204514 | 99 | 123 | 3.0 | 9.0 | 0.00 | 0.22 | 0.22 | 35 | 1018.8 |
| 20260831204011 | 100 | 141 | 1.0 | 8.0 | 0.00 | 0.22 | 0.22 | 33 | 1018.9 |
| 20260831203959 | 100 | 193 | 3.0 | 9.0 | 0.00 | 0.22 | 0.22 | 34 | 1018.8 |
| 20260831203555 | 100 | 141 | 1.0 | 8.0 | 0.00 | 0.22 | 0.22 | 33 | 1018.9 |
| 20260831202926 | 99 | 66 | 1.0 | 4.0 | 0.00 | 0.22 | 0.22 | 31 | 1018.9 |
| 20260831202903 | 98 | 66 | 2.0 | 4.0 | 0.00 | 0.22 | 0.22 | 30 | 1018.9 |
| 20260831202525 | 98 | 66 | 2.0 | 4.0 | 0.00 | 0.22 | 0.22 | 30 | 1018.9 |
| 20260831202126 | 99 | 66 | 2.0 | 4.0 | 0.00 | 0.22 | 0.22 | 29 | 1019.0 |
| 20260831201959 | 99 | 66 | 2.0 | 4.0 | 0.00 | 0.22 | 0.22 | 29 | 1019.0 |
| 20260831201330 | 100 | 63 | 1.0 | 4.0 | 0.00 | 0.22 | 0.22 | 29 | 1019.1 |
| 20260831200809 | 99 | 347 | 1.0 | 4.0 | 0.00 | 0.22 | 0.22 | 30 | 1019.1 |
| 20260831200308 | 99 | 347 | 1.0 | 4.0 | 0.00 | 0.22 | 0.22 | 29 | 1019.1 |
| 20260831195807 | 98 | 346 | 1.0 | 4.0 | 0.00 | 0.22 | 0.22 | 30 | 1019.2 |
| 20260831195243 | 98 | 346 | 1.0 | 4.0 | 0.00 | 0.22 | 0.22 | 31 | 1019.2 |
| 20260831194736 | 98 | 346 | 1.0 | 5.0 | 0.00 | 0.22 | 0.22 | 32 | 1019.3 |
| 20260831194222 | 98 | 346 | 2.0 | 5.0 | 0.00 | 0.22 | 0.22 | 32 | 1019.3 |
| 20260831193720 | 98 | 38 | 2.0 | 4.0 | 0.00 | 0.22 | 0.22 | 34 | 1019.3 |
| 20260831193215 | 98 | 37 | 2.0 | 4.0 | 0.00 | 0.22 | 0.22 | 31 | 1019.3 |
| 20260831192709 | 98 | 59 | 1.0 | 5.0 | 0.00 | 0.22 | 0.22 | 32 | 1019.4 |
| 20260831192141 | 98 | 59 | 2.0 | 5.0 | 0.00 | 0.22 | 0.22 | 30 | 1019.4 |
| 20260831191920 | 98 | 322 | 1.0 | 4.0 | 0.00 | 0.22 | 0.22 | 31 | 1019.4 |
| 20260831191747 | 98 | 322 | 1.0 | 4.0 | 0.00 | 0.22 | 0.22 | 31 | 1019.4 |
| 20260831191143 | 98 | 320 | 1.0 | 4.0 | 0.00 | 0.22 | 0.22 | 31 | 1019.5 |
| 20260831190641 | 98 | 319 | 1.0 | 4.0 | 0.00 | 0.22 | 0.22 | 30 | 1019.4 |
| 20260831190150 | 97 | 317 | 1.0 | 4.0 | 0.00 | 0.22 | 0.22 | 33 | 1019.5 |
| 20260831185913 | 97 | 326 | 2.0 | 5.0 | 0.00 | 0.22 | 0.22 | 33 | 1019.4 |
| 20260831185323 | 98 | 325 | 1.0 | 5.0 | 0.00 | 0.22 | 0.22 | 33 | 1019.5 |
| 20260831185154 | 98 | 325 | 1.0 | 5.0 | 0.00 | 0.22 | 0.22 | 33 | 1019.5 |
| 20260831184533 | 97 | 58 | 1.0 | 4.0 | 0.00 | 0.22 | 0.22 | 35 | 1019.5 |
| 20260831184033 | 96 | 58 | 1.0 | 4.0 | 0.00 | 0.22 | 0.22 | 38 | 1019.7 |
| 20260831183520 | 96 | 58 | 1.0 | 4.0 | 0.00 | 0.22 | 0.22 | 37 | 1019.7 |
| 20260831183012 | 95 | 58 | 1.0 | 4.0 | 0.00 | 0.22 | 0.22 | 37 | 1019.8 |
| 20260831182500 | 94 | 58 | 1.0 | 5.0 | 0.00 | 0.22 | 0.22 | 40 | 1019.8 |
| 20260831182131 | 93 | 63 | 2.0 | 4.0 | 0.00 | 0.22 | 0.22 | 40 | 1019.8 |
| 20260831182024 | 93 | 58 | 2.0 | 5.0 | 0.00 | 0.22 | 0.22 | 41 | 1019.8 |
| 20260831181521 | 93 | 63 | 2.0 | 4.0 | 0.00 | 0.22 | 0.22 | 40 | 1019.8 |
| 20260831180918 | 93 | 62 | 1.0 | 4.0 | 0.00 | 0.22 | 0.22 | 41 | 1019.9 |
| 20260831180348 | 92 | 61 | 2.0 | 5.0 | 0.00 | 0.22 | 0.22 | 40 | 1020.0 |
| 20260831175820 | 92 | 61 | 2.0 | 5.0 | 0.00 | 0.22 | 0.22 | 41 | 1020.0 |
| 20260831175326 | 92 | 290 | 1.0 | 4.0 | 0.00 | 0.22 | 0.22 | 43 | 1020.1 |
| 20260831174751 | 91 | 288 | 2.0 | 4.0 | 0.00 | 0.22 | 0.22 | 42 | 1020.0 |
| 20260831174249 | 92 | 288 | 2.0 | 4.0 | 0.00 | 0.22 | 0.22 | 41 | 1020.1 |
| 20260831173747 | 91 | 286 | 1.0 | 6.0 | 0.00 | 0.22 | 0.22 | 43 | 1020.1 |
| 20260831173221 | 92 | 272 | 1.0 | 3.0 | 0.00 | 0.22 | 0.22 | 42 | 1020.1 |
| 20260831172709 | 91 | 271 | 1.0 | 4.0 | 0.00 | 0.22 | 0.22 | 45 | 1020.1 |
| 20260831172144 | 91 | 268 | 2.0 | 4.0 | 0.00 | 0.22 | 0.22 | 42 | 1020.1 |
| 20260831171644 | 90 | 259 | 1.0 | 4.0 | 0.00 | 0.22 | 0.22 | 44 | 1020.2 |
| 20260831171140 | 90 | 257 | 1.0 | 4.0 | 0.00 | 0.22 | 0.22 | 45 | 1020.2 |
| 20260831170620 | 89 | 257 | 1.0 | 4.0 | 0.00 | 0.22 | 0.22 | 45 | 1020.3 |
| 20260831170121 | 89 | 257 | 1.0 | 4.0 | 0.00 | 0.22 | 0.22 | 46 | 1020.2 |
| 20260831165607 | 88 | 256 | 1.0 | 3.0 | 0.00 | 0.22 | 0.22 | 46 | 1020.1 |
| 20260831165113 | 88 | 256 | 1.0 | 5.0 | 0.00 | 0.22 | 0.22 | 47 | 1020.2 |
| 20260831164606 | 88 | 255 | 2.0 | 5.0 | 0.00 | 0.22 | 0.22 | 47 | 1020.2 |
| 20260831164106 | 87 | 255 | 1.0 | 4.0 | 0.00 | 0.22 | 0.22 | 48 | 1020.1 |
| 20260831163543 | 86 | 255 | 2.0 | 5.0 | 0.00 | 0.22 | 0.22 | 48 | 1020.1 |
| 20260831163018 | 86 | 254 | 2.0 | 5.0 | 0.00 | 0.22 | 0.22 | 49 | 1020.1 |
| 20260831162726 | 85 | 254 | 2.0 | 4.0 | 0.00 | 0.22 | 0.22 | 50 | 1020.2 |
| 20260831162557 | 85 | 254 | 2.0 | 4.0 | 0.00 | 0.22 | 0.22 | 50 | 1020.2 |
| 20260831161450 | 84 | 254 | 2.0 | 5.0 | 0.00 | 0.22 | 0.22 | 52 | 1020.1 |
| 20260831161153 | 83 | 254 | 1.0 | 4.0 | 0.00 | 0.22 | 0.22 | 54 | 1020.2 |
| 20260831161033 | 83 | 254 | 1.0 | 4.0 | 0.00 | 0.22 | 0.22 | 54 | 1020.2 |
| 20260831160409 | 83 | 254 | 2.0 | 4.0 | 0.00 | 0.22 | 0.22 | 53 | 1020.2 |
| 20260831155900 | 82 | 254 | 1.0 | 4.0 | 0.00 | 0.22 | 0.22 | 55 | 1020.2 |
| 20260831155401 | 82 | 254 | 1.0 | 3.0 | 0.00 | 0.22 | 0.22 | 57 | 1020.1 |
| 20260831154856 | 80 | 254 | 1.0 | 3.0 | 0.00 | 0.22 | 0.22 | 59 | 1020.1 |
| 20260831154355 | 79 | 254 | 2.0 | 4.0 | 0.00 | 0.22 | 0.22 | 62 | 1020.0 |
| 20260831154108 | 78 | 254 | 2.0 | 4.0 | 0.00 | 0.22 | 0.22 | 62 | 1020.0 |
| 20260831153949 | 78 | 254 | 2.0 | 4.0 | 0.00 | 0.22 | 0.22 | 62 | 1020.0 |
| 20260831153545 | 78 | 254 | 2.0 | 4.0 | 0.00 | 0.22 | 0.22 | 67 | 1020.0 |
| 20260831153432 | 78 | 254 | 2.0 | 4.0 | 0.00 | 0.22 | 0.22 | 67 | 1020.0 |
| 20260831152827 | 77 | 254 | 2.0 | 4.0 | 0.00 | 0.22 | 0.22 | 69 | 1020.0 |
| 20260831152321 | 76 | 254 | 1.0 | 3.0 | 0.00 | 0.22 | 0.22 | 71 | 1020.1 |
| 20260831151820 | 76 | 254 | 2.0 | 5.0 | 0.00 | 0.22 | 0.22 | 70 | 1020.1 |
| 20260831151320 | 76 | 254 | 2.0 | 5.0 | 0.00 | 0.22 | 0.22 | 70 | 1020.0 |
| 20260831151041 | 75 | 254 | 3.0 | 5.0 | 0.00 | 0.22 | 0.22 | 73 | 1020.0 |
| 20260831150922 | 75 | 254 | 3.0 | 5.0 | 0.00 | 0.22 | 0.22 | 73 | 1020.0 |
| 20260831150310 | 75 | 253 | 3.0 | 6.0 | 0.00 | 0.22 | 0.22 | 73 | 1020.1 |
| 20260831145750 | 74 | 222 | 2.0 | 6.0 | 0.00 | 0.22 | 0.22 | 76 | 1020.1 |
| 20260831145247 | 73 | 277 | 1.0 | 7.0 | 0.00 | 0.22 | 0.22 | 78 | 1020.1 |
| 20260831145027 | 72 | 275 | 1.0 | 7.0 | 0.00 | 0.22 | 0.22 | 80 | 1020.1 |
| 20260831144927 | 72 | 273 | 2.0 | 7.0 | 0.00 | 0.22 | 0.22 | 81 | 1020.0 |
| 20260831144853 | 72 | 275 | 1.0 | 7.0 | 0.00 | 0.22 | 0.22 | 80 | 1020.1 |
| 20260831144714 | 72 | 273 | 2.0 | 7.0 | 0.00 | 0.22 | 0.22 | 81 | 1020.0 |
| 20260831143723 | 71 | 273 | 3.0 | 7.0 | 0.00 | 0.22 | 0.22 | 83 | 1020.1 |
| 20260831143437 | 71 | 269 | 3.0 | 7.0 | 0.00 | 0.22 | 0.22 | 84 | 1020.1 |
| 20260831143322 | 71 | 269 | 3.0 | 7.0 | 0.00 | 0.22 | 0.22 | 84 | 1020.1 |
| 20260831142650 | 70 | 265 | 3.0 | 7.0 | 0.00 | 0.22 | 0.22 | 86 | 1020.0 |
| 20260831142128 | 70 | 259 | 2.0 | 7.0 | 0.00 | 0.22 | 0.22 | 88 | 1020.0 |
| 20260831141831 | 69 | 261 | 2.0 | 7.0 | 0.00 | 0.22 | 0.22 | 89 | 1020.1 |
| 20260831141714 | 69 | 261 | 2.0 | 7.0 | 0.00 | 0.22 | 0.22 | 89 | 1020.1 |
| 20260831141040 | 68 | 249 | 2.0 | 5.0 | 0.00 | 0.22 | 0.22 | 91 | 1019.9 |
| 20260831140508 | 68 | 248 | 2.0 | 5.0 | 0.00 | 0.22 | 0.22 | 91 | 1020.1 |
| 20260831140004 | 67 | 273 | 2.0 | 4.0 | 0.00 | 0.22 | 0.22 | 92 | 1020.0 |
| 20260831135508 | 67 | 271 | 1.0 | 3.0 | 0.00 | 0.22 | 0.22 | 92 | 1019.9 |
| 20260831134929 | 67 | 271 | 1.0 | 3.0 | 0.00 | 0.22 | 0.22 | 92 | 1019.9 |
| 20260831134416 | 66 | 271 | 1.0 | 3.0 | 0.00 | 0.22 | 0.22 | 92 | 1019.9 |
| 20260831133917 | 66 | 271 | 1.0 | 2.0 | 0.00 | 0.22 | 0.22 | 92 | 1020.0 |
| 20260831133415 | 66 | 271 | 1.0 | 4.0 | 0.00 | 0.22 | 0.22 | 92 | 1019.8 |
| 20260831132851 | 66 | 271 | 2.0 | 4.0 | 0.00 | 0.22 | 0.22 | 93 | 1020.0 |
| 20260831132323 | 66 | 271 | 3.0 | 6.0 | 0.00 | 0.22 | 0.22 | 93 | 1020.0 |
| 20260831132036 | 65 | 271 | 3.0 | 6.0 | 0.00 | 0.22 | 0.22 | 93 | 1019.8 |
| 20260831131924 | 65 | 271 | 3.0 | 6.0 | 0.00 | 0.22 | 0.22 | 93 | 1019.8 |
| 20260831131315 | 65 | 269 | 2.0 | 4.0 | 0.00 | 0.22 | 0.22 | 92 | 1019.7 |
| 20260831130816 | 65 | 269 | 2.0 | 6.0 | 0.00 | 0.22 | 0.22 | 93 | 1019.8 |
| 20260831130309 | 64 | 268 | 2.0 | 6.0 | 0.00 | 0.22 | 0.22 | 93 | 1019.7 |
| 20260831125751 | 64 | 266 | 2.0 | 3.0 | 0.00 | 0.22 | 0.22 | 92 | 1019.7 |
| 20260831125242 | 64 | 266 | 1.0 | 3.0 | 0.00 | 0.22 | 0.22 | 92 | 1019.7 |
| 20260831124714 | 64 | 266 | 1.0 | 3.0 | 0.00 | 0.22 | 0.22 | 92 | 1019.5 |
| 20260831124210 | 64 | 266 | 1.0 | 3.0 | 0.00 | 0.22 | 0.22 | 92 | 1019.5 |
| 20260831123720 | 64 | 266 | 1.0 | 2.0 | 0.00 | 0.22 | 0.22 | 92 | 1019.5 |
| 20260831123206 | 64 | 266 | 1.0 | 2.0 | 0.00 | 0.22 | 0.22 | 92 | 1019.5 |
| 20260831122719 | 64 | 266 | 0.0 | 1.0 | 0.00 | 0.22 | 0.22 | 91 | 1019.4 |
| 20260831122708 | 64 | 266 | 0.0 | 2.0 | 0.00 | 0.22 | 0.22 | 92 | 1019.4 |
| 20260831122609 | 64 | 266 | 0.0 | 1.0 | 0.00 | 0.22 | 0.22 | 91 | 1019.4 |
| 20260831121638 | 64 | 266 | 0.0 | 1.0 | 0.00 | 0.22 | 0.22 | 91 | 1019.3 |
| 20260831121140 | 64 | 266 | 0.0 | 1.0 | 0.00 | 0.22 | 0.22 | 91 | 1019.4 |
| 20260831120631 | 64 | 266 | 0.0 | 2.0 | 0.00 | 0.22 | 0.22 | 91 | 1019.3 |
| 20260831120612 | 64 | 266 | 1.0 | 2.0 | 0.00 | 0.22 | 0.22 | 91 | 1019.3 |
| 20260831120228 | 64 | 266 | 1.0 | 2.0 | 0.00 | 0.22 | 0.22 | 91 | 1019.3 |
| 20260831115607 | 64 | 266 | 1.0 | 2.0 | 0.00 | 0.22 | 0.22 | 91 | 1019.3 |
| 20260831115105 | 65 | 266 | 1.0 | 2.0 | 0.00 | 0.22 | 0.22 | 91 | 1019.1 |
| 20260831114600 | 65 | 266 | 0.0 | 2.0 | 0.00 | 0.22 | 0.22 | 91 | 1019.2 |
| 20260831114320 | 65 | 266 | 0.0 | 3.0 | 0.00 | 0.22 | 0.22 | 91 | 1019.1 |
| 20260831114156 | 65 | 266 | 0.0 | 3.0 | 0.00 | 0.22 | 0.22 | 91 | 1019.1 |
| 20260831113757 | 65 | 266 | 1.0 | 3.0 | 0.00 | 0.22 | 0.22 | 91 | 1019.1 |
| 20260831113639 | 65 | 266 | 1.0 | 3.0 | 0.00 | 0.22 | 0.22 | 91 | 1019.1 |
| 20260831113031 | 65 | 266 | 1.0 | 3.0 | 0.00 | 0.22 | 0.22 | 91 | 1019.1 |
| 20260831112535 | 65 | 266 | 1.0 | 3.0 | 0.00 | 0.22 | 0.22 | 91 | 1018.9 |
| 20260831111952 | 65 | 266 | 1.0 | 2.0 | 0.00 | 0.22 | 0.22 | 90 | 1018.9 |
| 20260831111921 | 65 | 266 | 1.0 | 6.0 | 0.00 | 0.22 | 0.22 | 90 | 1018.9 |
| 20260831111534 | 65 | 266 | 1.0 | 6.0 | 0.00 | 0.22 | 0.22 | 90 | 1018.9 |
| 20260831111119 | 65 | 266 | 2.0 | 6.0 | 0.00 | 0.22 | 0.22 | 90 | 1018.9 |
| 20260831111003 | 65 | 266 | 2.0 | 6.0 | 0.00 | 0.22 | 0.22 | 90 | 1018.9 |
| 20260831110328 | 65 | 266 | 2.0 | 6.0 | 0.00 | 0.22 | 0.22 | 90 | 1018.8 |
| 20260831105827 | 65 | 263 | 1.0 | 6.0 | 0.00 | 0.22 | 0.22 | 89 | 1018.9 |
| 20260831105520 | 65 | 262 | 2.0 | 6.0 | 0.00 | 0.22 | 0.22 | 89 | 1018.7 |
| 20260831105405 | 65 | 262 | 2.0 | 6.0 | 0.00 | 0.22 | 0.22 | 89 | 1018.7 |
| 20260831104758 | 65 | 261 | 2.0 | 6.0 | 0.00 | 0.22 | 0.22 | 89 | 1018.4 |
| 20260831104255 | 66 | 256 | 2.0 | 5.0 | 0.00 | 0.22 | 0.22 | 88 | 1018.6 |
| 20260831103749 | 66 | 131 | 1.0 | 4.0 | 0.00 | 0.22 | 0.22 | 89 | 1018.3 |
| 20260831103235 | 66 | 130 | 1.0 | 4.0 | 0.00 | 0.22 | 0.22 | 89 | 1018.0 |
| 20260831102728 | 66 | 130 | 2.0 | 4.0 | 0.00 | 0.22 | 0.22 | 89 | 1017.6 |
| 20260831102310 | 66 | 130 | 3.0 | 8.0 | 0.00 | 0.22 | 0.22 | 89 | 1017.6 |
| 20260831101718 | 66 | 111 | 6.0 | 14.0 | 0.01 | 0.22 | 0.22 | 90 | 1017.4 |
| 20260831101707 | 66 | 115 | 5.0 | 14.0 | 0.01 | 0.22 | 0.22 | 89 | 1017.1 |
| 20260831101308 | 66 | 111 | 6.0 | 14.0 | 0.01 | 0.22 | 0.22 | 90 | 1017.4 |
| 20260831100635 | 65 | 115 | 6.0 | 12.0 | 0.01 | 0.22 | 0.22 | 90 | 1017.2 |
| 20260831100132 | 66 | 107 | 7.0 | 13.0 | 0.02 | 0.22 | 0.22 | 91 | 1016.9 |
| 20260831095630 | 66 | 111 | 7.0 | 13.0 | 0.03 | 0.22 | 0.22 | 91 | 1016.6 |
| 20260831095059 | 66 | 109 | 5.0 | 12.0 | 0.04 | 0.22 | 0.22 | 91 | 1017.2 |
| 20260831094752 | 66 | 111 | 5.0 | 9.0 | 0.04 | 0.22 | 0.22 | 91 | 1017.9 |
| 20260831094635 | 66 | 111 | 5.0 | 9.0 | 0.04 | 0.22 | 0.22 | 91 | 1017.9 |
| 20260831094006 | 66 | 107 | 3.0 | 10.0 | 0.05 | 0.22 | 0.22 | 90 | 1017.9 |
| 20260831093504 | 67 | 58 | 1.0 | 8.0 | 0.05 | 0.22 | 0.22 | 90 | 1018.1 |
| 20260831092954 | 67 | 140 | 1.0 | 3.0 | 0.05 | 0.22 | 0.22 | 90 | 1019.0 |
| 20260831092451 | 67 | 140 | 1.0 | 3.0 | 0.05 | 0.22 | 0.22 | 90 | 1019.1 |
| 20260831091929 | 67 | 140 | 1.0 | 4.0 | 0.04 | 0.21 | 0.21 | 89 | 1019.2 |
| 20260831091425 | 67 | 141 | 1.0 | 4.0 | 0.05 | 0.21 | 0.21 | 89 | 1019.4 |
| 20260831090939 | 67 | 140 | 1.0 | 3.0 | 0.05 | 0.21 | 0.21 | 89 | 1019.8 |
| 20260831090646 | 67 | 139 | 1.0 | 3.0 | 0.04 | 0.20 | 0.20 | 88 | 1019.7 |
| 20260831090526 | 67 | 139 | 1.0 | 3.0 | 0.04 | 0.20 | 0.20 | 88 | 1019.7 |
| 20260831085906 | 67 | 137 | 1.0 | 2.0 | 0.04 | 0.20 | 0.20 | 88 | 1019.3 |